| time (UTC) | temp C | wind direction | speed KPH | gust KPH | rain 1hr cm | rain 24hr cm | rain mn cm | humidity % | barometer mb |
| 20260506135413 | 8 | 1 | 1.6 | 8.0 | 0.00 | 0.00 | 0.00 | 95 | 1010.4 |
| 20260506134909 | 8 | 39 | 1.6 | 3.2 | 0.00 | 0.00 | 0.00 | 95 | 1010.4 |
| 20260506134406 | 8 | 345 | 0.0 | 8.0 | 0.00 | 0.00 | 0.00 | 96 | 1010.0 |
| 20260506133903 | 8 | 38 | 0.0 | 1.6 | 0.00 | 0.00 | 0.00 | 96 | 1010.0 |
| 20260506133359 | 8 | 343 | 1.6 | 6.4 | 0.00 | 0.00 | 0.00 | 96 | 1009.8 |
| 20260506132856 | 8 | 69 | 0.0 | 6.4 | 0.00 | 0.00 | 0.00 | 97 | 1010.1 |
| 20260506132353 | 8 | 23 | 6.4 | 6.4 | 0.00 | 0.00 | 0.00 | 97 | 1010.0 |
| 20260506131851 | 8 | 42 | 0.0 | 3.2 | 0.00 | 0.00 | 0.00 | 98 | 1010.1 |
| 20260506131347 | 8 | 202 | 0.0 | 1.6 | 0.00 | 0.00 | 0.00 | 98 | 1009.8 |
| 20260506130845 | 8 | 38 | 3.2 | 3.2 | 0.00 | 0.00 | 0.00 | 98 | 1009.8 |
| 20260506130341 | 8 | 20 | 0.0 | 3.2 | 0.00 | 0.00 | 0.00 | 98 | 1009.8 |
| 20260506125839 | 8 | 33 | 3.2 | 3.2 | 0.00 | 0.00 | 0.00 | 99 | 1009.5 |
| 20260506125337 | 8 | 32 | 0.0 | 3.2 | 0.00 | 0.00 | 0.00 | 98 | 1009.4 |
| 20260506124835 | 8 | 347 | 0.0 | 3.2 | 0.00 | 0.00 | 0.00 | 98 | 1009.5 |
| 20260506124332 | 8 | 344 | 0.0 | 4.8 | 0.00 | 0.00 | 0.00 | 99 | 1009.4 |
| 20260506123829 | 8 | 69 | 1.6 | 4.8 | 0.00 | 0.00 | 0.00 | 98 | 1009.3 |
| 20260506123328 | 8 | 29 | 3.2 | 3.2 | 0.00 | 0.00 | 0.00 | 99 | 1009.4 |
| 20260506122824 | 8 | 64 | 0.0 | 3.2 | 0.00 | 0.00 | 0.00 | 99 | 1009.3 |
| 20260506122321 | 8 | 49 | 0.0 | 3.2 | 0.00 | 0.00 | 0.00 | 99 | 1009.1 |
| 20260506121820 | 8 | 56 | 1.6 | 1.6 | 0.00 | 0.00 | 0.00 | 98 | 1009.3 |
| 20260506121316 | 8 | 71 | 1.6 | 3.2 | 0.00 | 0.00 | 0.00 | 99 | 1009.2 |
| 20260506120813 | 8 | 52 | 0.0 | 1.6 | 0.00 | 0.00 | 0.00 | 99 | 1009.5 |
| 20260506120311 | 7 | 45 | 0.0 | 3.2 | 0.00 | 0.00 | 0.00 | 99 | 1009.5 |
| 20260506115809 | 7 | 78 | 1.6 | 3.2 | 0.00 | 2.92 | 2.92 | 99 | 1009.4 |
| 20260506115307 | 7 | 18 | 3.2 | 3.2 | 0.00 | 2.92 | 2.92 | 99 | 1009.5 |
| 20260506114804 | 7 | 77 | 1.6 | 3.2 | 0.00 | 2.92 | 2.92 | 99 | 1009.0 |
| 20260506114302 | 7 | 116 | 0.0 | 3.2 | 0.00 | 2.92 | 2.92 | 99 | 1009.1 |
| 20260506113800 | 7 | 42 | 3.2 | 3.2 | 0.00 | 2.92 | 2.92 | 99 | 1009.0 |
| 20260506113257 | 7 | 56 | 1.6 | 3.2 | 0.00 | 2.92 | 2.92 | 99 | 1009.3 |
| 20260506112754 | 7 | 46 | 0.0 | 3.2 | 0.00 | 2.92 | 2.92 | 99 | 1009.0 |
| 20260506112251 | 7 | 148 | 1.6 | 4.8 | 0.00 | 2.92 | 2.92 | 98 | 1009.1 |
| 20260506111748 | 7 | 62 | 0.0 | 3.2 | 0.00 | 2.92 | 2.92 | 98 | 1008.8 |
| 20260506111246 | 7 | 59 | 1.6 | 3.2 | 0.00 | 2.92 | 2.92 | 99 | 1009.1 |
| 20260506110743 | 7 | 25 | 0.0 | 3.2 | 0.00 | 2.92 | 2.92 | 99 | 1009.0 |
| 20260506110241 | 7 | 86 | 0.0 | 3.2 | 0.00 | 2.92 | 2.92 | 98 | 1008.7 |
| 20260506105737 | 7 | 6 | 0.0 | 3.2 | 0.00 | 2.92 | 2.92 | 98 | 1008.4 |
| 20260506105234 | 7 | 55 | 0.0 | 1.6 | 0.00 | 2.92 | 2.92 | 98 | 1008.3 |
| 20260506104732 | 7 | 84 | 0.0 | 3.2 | 0.00 | 2.92 | 2.92 | 98 | 1007.8 |
| 20260506104229 | 7 | 49 | 1.6 | 3.2 | 0.00 | 2.92 | 2.92 | 98 | 1008.2 |
| 20260506103726 | 7 | 59 | 0.0 | 3.2 | 0.05 | 2.92 | 2.92 | 98 | 1007.9 |
| 20260506103223 | 7 | 15 | 0.0 | 3.2 | 0.13 | 2.92 | 2.92 | 98 | 1007.9 |
| 20260506102721 | 7 | 81 | 3.2 | 4.8 | 0.05 | 2.92 | 2.92 | 98 | 1008.0 |
| 20260506102220 | 7 | 49 | 1.6 | 4.8 | 0.13 | 2.90 | 2.90 | 98 | 1008.1 |
| 20260506101715 | 7 | 47 | 1.6 | 3.2 | 0.13 | 2.90 | 2.90 | 98 | 1008.2 |
| 20260506101212 | 7 | 94 | 3.2 | 3.2 | 0.13 | 2.87 | 2.87 | 98 | 1008.4 |
| 20260506100710 | 7 | 50 | 3.2 | 6.4 | 0.13 | 2.87 | 2.87 | 98 | 1008.3 |
| 20260506100208 | 7 | 20 | 3.2 | 4.8 | 0.18 | 2.87 | 2.87 | 98 | 1008.6 |
| 20260506095706 | 7 | 26 | 3.2 | 4.8 | 0.23 | 2.84 | 2.84 | 98 | 1008.7 |
| 20260506095203 | 7 | 30 | 3.2 | 3.2 | 0.23 | 2.82 | 2.82 | 98 | 1008.6 |
| 20260506094700 | 7 | 19 | 1.6 | 3.2 | 0.23 | 2.82 | 2.82 | 98 | 1008.6 |
| 20260506094158 | 7 | 102 | 0.0 | 1.6 | 0.18 | 2.79 | 2.79 | 98 | 1008.6 |
| 20260506093657 | 7 | 49 | 1.6 | 3.2 | 0.23 | 2.77 | 2.77 | 98 | 1008.6 |
| 20260506093153 | 7 | 82 | 1.6 | 1.6 | 0.23 | 2.77 | 2.77 | 98 | 1008.4 |
| 20260506092651 | 7 | 144 | 0.0 | 1.6 | 0.18 | 2.72 | 2.72 | 98 | 1008.5 |
| 20260506092148 | 7 | 39 | 0.0 | 3.2 | 0.18 | 2.72 | 2.72 | 98 | 1008.3 |
| 20260506091646 | 7 | 86 | 3.2 | 3.2 | 0.05 | 2.69 | 2.69 | 98 | 1008.0 |
| 20260506091143 | 7 | 75 | 3.2 | 4.8 | 0.05 | 2.69 | 2.69 | 98 | 1008.2 |
| 20260506090641 | 7 | 22 | 3.2 | 3.2 | 0.05 | 2.67 | 2.67 | 98 | 1008.3 |
| 20260506090137 | 7 | 54 | 1.6 | 3.2 | 0.05 | 2.67 | 2.67 | 98 | 1008.1 |
| 20260506085634 | 7 | 38 | 0.0 | 3.2 | 0.13 | 2.67 | 2.67 | 98 | 1008.2 |
| 20260506085130 | 7 | 47 | 3.2 | 3.2 | 0.18 | 2.67 | 2.67 | 98 | 1008.3 |
| 20260506084627 | 7 | 61 | 0.0 | 3.2 | 0.23 | 2.64 | 2.64 | 98 | 1008.2 |
| 20260506084124 | 7 | 22 | 1.6 | 3.2 | 0.23 | 2.62 | 2.62 | 98 | 1008.5 |
| 20260506083621 | 7 | 52 | 3.2 | 3.2 | 0.30 | 2.62 | 2.62 | 98 | 1008.7 |
| 20260506083118 | 7 | 28 | 3.2 | 3.2 | 0.30 | 2.59 | 2.59 | 98 | 1008.3 |
| 20260506082615 | 7 | 12 | 3.2 | 4.8 | 0.30 | 2.54 | 2.54 | 98 | 1008.4 |
| 20260506082111 | 7 | 44 | 3.2 | 4.8 | 0.30 | 2.54 | 2.54 | 98 | 1008.3 |
| 20260506081609 | 7 | 42 | 1.6 | 3.2 | 0.36 | 2.49 | 2.49 | 98 | 1008.2 |
| 20260506081106 | 7 | 14 | 3.2 | 3.2 | 0.36 | 2.46 | 2.46 | 98 | 1008.3 |
| 20260506080604 | 7 | 37 | 3.2 | 3.2 | 0.30 | 2.44 | 2.44 | 98 | 1008.1 |
| 20260506073044 | 8 | 24 | 3.2 | 4.8 | 0.36 | 2.21 | 2.21 | 98 | 1007.7 |
| 20260506072541 | 8 | 20 | 3.2 | 4.8 | 0.23 | 2.18 | 2.18 | 98 | 1007.7 |
| 20260506072039 | 8 | 33 | 1.6 | 3.2 | 0.18 | 2.16 | 2.16 | 98 | 1007.5 |
| 20260506071537 | 8 | 36 | 0.0 | 3.2 | 0.43 | 2.13 | 2.13 | 98 | 1007.7 |
| 20260506071033 | 8 | 28 | 1.6 | 3.2 | 0.30 | 2.11 | 2.11 | 98 | 1007.7 |
| 20260506070531 | 8 | 30 | 0.0 | 1.6 | 0.23 | 2.06 | 2.06 | 98 | 1007.5 |
| 20260506062508 | 8 | 10 | 3.2 | 4.8 | 0.18 | 1.88 | 1.88 | 98 | 1008.0 |
| 20260506062004 | 9 | 30 | 1.6 | 3.2 | 0.18 | 1.85 | 1.85 | 98 | 1007.8 |
| 20260506061500 | 9 | 36 | 0.0 | 3.2 | 0.23 | 1.83 | 1.83 | 98 | 1008.0 |
| 20260506060958 | 9 | 11 | 0.0 | 3.2 | 0.43 | 1.83 | 1.83 | 98 | 1008.3 |
| 20260506060457 | 9 | 46 | 0.0 | 1.6 | 0.23 | 1.78 | 1.78 | 98 | 1008.3 |
| 20260506050925 | 9 | 39 | 1.6 | 3.2 | 0.05 | 1.65 | 1.65 | 98 | 1008.9 |
| 20260506050423 | 9 | 76 | 0.0 | 1.6 | 0.05 | 1.63 | 1.63 | 98 | 1008.7 |
| 20260506044913 | 9 | 42 | 1.6 | 3.2 | 0.13 | 1.60 | 1.60 | 98 | 1008.9 |
| 20260506044412 | 9 | 9 | 0.0 | 1.6 | 0.13 | 1.60 | 1.60 | 98 | 1008.9 |
| 20260506043908 | 9 | 69 | 0.0 | 1.6 | 0.23 | 1.60 | 1.60 | 98 | 1009.0 |
| 20260506043405 | 9 | 32 | 0.0 | 3.2 | 0.23 | 1.57 | 1.57 | 98 | 1008.9 |
| 20260506042904 | 9 | 43 | 0.0 | 3.2 | 0.30 | 1.55 | 1.55 | 98 | 1009.0 |
| 20260506042403 | 9 | 46 | 1.6 | 3.2 | 0.23 | 1.52 | 1.52 | 98 | 1008.9 |
| 20260506041900 | 9 | 43 | 3.2 | 3.2 | 0.18 | 1.50 | 1.50 | 98 | 1009.2 |
| 20260506041357 | 9 | 3 | 1.6 | 3.2 | 0.23 | 1.50 | 1.50 | 98 | 1009.2 |
| 20260506040855 | 9 | 78 | 1.6 | 4.8 | 0.18 | 1.45 | 1.45 | 98 | 1009.4 |
| 20260506040352 | 10 | 42 | 3.2 | 3.2 | 0.23 | 1.45 | 1.45 | 98 | 1009.3 |
| 20260506035848 | 10 | 252 | 3.2 | 4.8 | 0.23 | 1.42 | 1.42 | 98 | 1009.3 |
| 20260506035345 | 10 | 34 | 1.6 | 3.2 | 0.18 | 1.40 | 1.40 | 98 | 1009.3 |
| 20260506034842 | 10 | 89 | 0.0 | 3.2 | 0.18 | 1.37 | 1.37 | 98 | 1009.3 |
| 20260506034339 | 10 | 61 | 1.6 | 3.2 | 0.18 | 1.37 | 1.37 | 98 | 1009.3 |
| 20260506033836 | 10 | 47 | 3.2 | 3.2 | 0.18 | 1.35 | 1.35 | 98 | 1009.5 |
| 20260506033334 | 10 | 46 | 3.2 | 3.2 | 0.23 | 1.35 | 1.35 | 98 | 1009.6 |
| 20260506032830 | 10 | 59 | 1.6 | 3.2 | 0.30 | 1.32 | 1.32 | 97 | 1009.9 |
| 20260506032327 | 10 | 43 | 4.8 | 4.8 | 0.36 | 1.30 | 1.30 | 98 | 1010.2 |
| 20260506031824 | 10 | 218 | 3.2 | 3.2 | 0.36 | 1.27 | 1.27 | 98 | 1010.0 |
| 20260506031321 | 10 | 96 | 3.2 | 9.7 | 0.36 | 1.22 | 1.22 | 97 | 1009.9 |
| 20260506030819 | 10 | 27 | 3.2 | 3.2 | 0.53 | 1.22 | 1.22 | 97 | 1009.5 |
| 20260506030317 | 10 | 117 | 3.2 | 3.2 | 0.48 | 1.17 | 1.17 | 97 | 1009.3 |
| 20260506025813 | 10 | 55 | 0.0 | 1.6 | 0.30 | 1.09 | 1.09 | 97 | 1009.1 |
| 20260506025310 | 10 | 49 | 0.0 | 0.0 | 0.36 | 1.07 | 1.07 | 97 | 1009.3 |
| 20260506024807 | 10 | 38 | 3.2 | 3.2 | 0.36 | 1.04 | 1.04 | 97 | 1009.0 |
| 20260506024304 | 10 | 39 | 1.6 | 3.2 | 0.23 | 1.02 | 1.02 | 97 | 1009.4 |
| 20260506023800 | 10 | 52 | 0.0 | 3.2 | 0.23 | 0.99 | 0.99 | 97 | 1009.4 |
| 20260506023257 | 10 | 74 | 0.0 | 1.6 | 0.13 | 0.97 | 0.97 | 97 | 1009.3 |
| 20260506022753 | 10 | 48 | 1.6 | 3.2 | 0.13 | 0.94 | 0.94 | 97 | 1009.2 |
| 20260506022252 | 10 | 46 | 4.8 | 4.8 | 0.30 | 0.94 | 0.94 | 97 | 1009.2 |
| 20260506021749 | 10 | 65 | 3.2 | 3.2 | 0.36 | 0.94 | 0.94 | 97 | 1009.4 |
| 20260506021246 | 10 | 72 | 3.2 | 3.2 | 0.48 | 0.89 | 0.89 | 97 | 1009.1 |
| 20260506020743 | 10 | 80 | 3.2 | 3.2 | 0.43 | 0.86 | 0.86 | 97 | 1009.0 |
| 20260506020241 | 10 | 62 | 4.8 | 4.8 | 0.23 | 0.81 | 0.81 | 97 | 1009.2 |
| 20260506015738 | 10 | 55 | 3.2 | 3.2 | 0.23 | 0.79 | 0.79 | 97 | 1009.0 |
| 20260506015235 | 10 | 39 | 3.2 | 4.8 | 0.18 | 0.76 | 0.76 | 97 | 1009.1 |
| 20260506014732 | 10 | 59 | 3.2 | 3.2 | 0.05 | 0.74 | 0.74 | 97 | 1009.3 |
| 20260506014228 | 10 | 69 | 0.0 | 4.8 | 0.05 | 0.74 | 0.74 | 97 | 1009.0 |
| 20260506013726 | 10 | 49 | 1.6 | 3.2 | 0.05 | 0.74 | 0.74 | 97 | 1009.2 |
| 20260506013223 | 10 | 126 | 0.0 | 3.2 | 0.00 | 0.74 | 0.74 | 96 | 1008.9 |
| 20260506012719 | 10 | 82 | 3.2 | 4.8 | 0.18 | 0.74 | 0.74 | 96 | 1008.9 |
| 20260506012216 | 10 | 39 | 3.2 | 4.8 | 0.43 | 0.71 | 0.71 | 96 | 1008.9 |
| 20260506011713 | 10 | 56 | 3.2 | 3.2 | 0.36 | 0.71 | 0.71 | 96 | 1008.9 |
| 20260506011209 | 10 | 37 | 0.0 | 3.2 | 0.13 | 0.66 | 0.66 | 96 | 1008.9 |
| 20260506010708 | 10 | 65 | 3.2 | 6.4 | 0.00 | 0.64 | 0.64 | 96 | 1008.8 |
| 20260506010205 | 11 | 30 | 3.2 | 4.8 | 0.05 | 0.64 | 0.64 | 96 | 1008.7 |
| 20260506005702 | 11 | 13 | 3.2 | 4.8 | 0.05 | 0.64 | 0.64 | 96 | 1008.7 |
| 20260506005159 | 11 | 40 | 3.2 | 3.2 | 0.00 | 0.61 | 0.61 | 96 | 1008.7 |
| 20260506004655 | 11 | 61 | 3.2 | 3.2 | 0.13 | 0.61 | 0.61 | 96 | 1008.7 |
| 20260506004152 | 11 | 62 | 1.6 | 3.2 | 0.23 | 0.61 | 0.61 | 96 | 1008.9 |
| 20260506003648 | 11 | 62 | 3.2 | 4.8 | 0.30 | 0.61 | 0.61 | 95 | 1008.6 |
| 20260506003145 | 11 | 62 | 3.2 | 4.8 | 0.36 | 0.58 | 0.58 | 95 | 1008.7 |
| 20260506002641 | 11 | 56 | 3.2 | 4.8 | 0.48 | 0.56 | 0.56 | 95 | 1008.8 |
| 20260506002137 | 11 | 64 | 3.2 | 4.8 | 0.43 | 0.51 | 0.51 | 95 | 1008.9 |
| 20260506001633 | 11 | 63 | 3.2 | 3.2 | 0.43 | 0.46 | 0.46 | 94 | 1008.8 |
| 20260506001131 | 11 | 84 | 4.8 | 4.8 | 0.36 | 0.43 | 0.43 | 94 | 1008.8 |
| 20260506000628 | 11 | 116 | 3.2 | 6.4 | 0.53 | 0.41 | 0.41 | 93 | 1008.9 |
| 20260506000125 | 11 | 120 | 4.8 | 6.4 | 1.02 | 0.38 | 0.38 | 93 | 1009.1 |
| 20260505235623 | 11 | 40 | 6.4 | 6.4 | 1.37 | 0.30 | 0.30 | 92 | 1009.2 |
| 20260505235120 | 12 | 100 | 4.8 | 8.0 | 0.89 | 0.20 | 0.20 | 92 | 1008.8 |
| 20260505234617 | 12 | 305 | 3.2 | 6.4 | 0.43 | 0.08 | 0.08 | 91 | 1009.4 |
| 20260505234113 | 13 | 333 | 4.8 | 8.0 | 0.30 | 0.05 | 0.05 | 90 | 1008.5 |
| 20260505233611 | 13 | 10 | 4.8 | 6.4 | 0.00 | 0.00 | 0.00 | 90 | 1008.2 |
| 20260505233108 | 14 | 0 | 0.0 | 6.4 | 0.00 | 0.00 | 0.00 | 91 | 1007.9 |
| 20260505232606 | 14 | 31 | 3.2 | 4.8 | 0.00 | 0.00 | 0.00 | 91 | 1008.0 |
| 20260505232103 | 14 | 35 | 1.6 | 3.2 | 0.00 | 0.00 | 0.00 | 90 | 1008.1 |
| 20260505231600 | 15 | 56 | 3.2 | 3.2 | 0.00 | 0.00 | 0.00 | 90 | 1008.0 |
| 20260505231058 | 15 | 42 | 1.6 | 3.2 | 0.00 | 0.00 | 0.00 | 90 | 1007.9 |
| 20260505230556 | 15 | 54 | 1.6 | 3.2 | 0.00 | 0.00 | 0.00 | 89 | 1008.0 |
| 20260505230052 | 15 | 32 | 0.0 | 3.2 | 0.00 | 0.00 | 0.00 | 88 | 1008.0 |
| 20260505225549 | 15 | 48 | 3.2 | 4.8 | 0.00 | 0.00 | 0.00 | 87 | 1008.0 |
| 20260505225045 | 15 | 63 | 3.2 | 4.8 | 0.00 | 0.00 | 0.00 | 87 | 1008.0 |
| 20260505224542 | 15 | 122 | 1.6 | 3.2 | 0.00 | 0.00 | 0.00 | 87 | 1008.2 |
| 20260505224039 | 15 | 209 | 0.0 | 3.2 | 0.05 | 0.00 | 0.00 | 86 | 1008.3 |
| 20260505223536 | 15 | 15 | 1.6 | 3.2 | 0.05 | 0.00 | 0.00 | 87 | 1008.3 |
| 20260505223032 | 15 | 51 | 0.0 | 3.2 | 0.00 | 0.00 | 0.00 | 87 | 1008.5 |
| 20260505222529 | 15 | 47 | 3.2 | 4.8 | 0.00 | 0.00 | 0.00 | 87 | 1008.5 |
| 20260505222025 | 15 | 32 | 3.2 | 3.2 | 0.00 | 0.00 | 0.00 | 87 | 1008.6 |
| 20260505221523 | 15 | 13 | 0.0 | 4.8 | 0.00 | 0.00 | 0.00 | 86 | 1008.4 |
| 20260505221019 | 15 | 44 | 0.0 | 3.2 | 0.00 | 0.00 | 0.00 | 86 | 1008.4 |
| 20260505220516 | 15 | 51 | 3.2 | 4.8 | 0.00 | 0.00 | 0.00 | 87 | 1008.6 |
| 20260505220014 | 15 | 13 | 3.2 | 6.4 | 0.00 | 0.00 | 0.00 | 86 | 1008.8 |
| 20260505215512 | 16 | 0 | 1.6 | 4.8 | 0.00 | 0.00 | 0.00 | 85 | 1008.5 |
| 20260505215009 | 16 | 39 | 3.2 | 3.2 | 0.00 | 0.00 | 0.00 | 85 | 1008.4 |
| 20260505214508 | 16 | 36 | 3.2 | 4.8 | 0.00 | 0.00 | 0.00 | 83 | 1008.3 |
| 20260505214004 | 16 | 13 | 3.2 | 4.8 | 0.00 | 0.00 | 0.00 | 81 | 1007.9 |
| 20260505213502 | 16 | 336 | 3.2 | 6.4 | 0.00 | 0.00 | 0.00 | 80 | 1007.9 |
| 20260505212958 | 17 | 38 | 4.8 | 4.8 | 0.00 | 0.00 | 0.00 | 78 | 1007.7 |
| 20260505212454 | 17 | 49 | 4.8 | 4.8 | 0.00 | 0.00 | 0.00 | 78 | 1008.1 |
| 20260505211951 | 17 | 353 | 3.2 | 3.2 | 0.00 | 0.00 | 0.00 | 76 | 1007.7 |
| 20260505211449 | 17 | 212 | 0.0 | 4.8 | 0.00 | 0.00 | 0.00 | 74 | 1008.1 |
| 20260505210945 | 17 | 275 | 3.2 | 11.3 | 0.00 | 0.00 | 0.00 | 74 | 1008.1 |
| 20260505210442 | 17 | 173 | 3.2 | 4.8 | 0.00 | 0.00 | 0.00 | 74 | 1007.8 |
| 20260505205939 | 18 | 153 | 8.0 | 8.0 | 0.00 | 0.00 | 0.00 | 74 | 1007.7 |
| 20260505205437 | 18 | 164 | 4.8 | 6.4 | 0.00 | 0.00 | 0.00 | 70 | 1007.9 |
| 20260505204933 | 18 | 266 | 0.0 | 3.2 | 0.00 | 0.00 | 0.00 | 68 | 1007.8 |
| 20260505204432 | 18 | 217 | 0.0 | 4.8 | 0.00 | 0.00 | 0.00 | 68 | 1007.5 |
| 20260505203928 | 18 | 212 | 0.0 | 1.6 | 0.00 | 0.00 | 0.00 | 67 | 1007.5 |
| 20260505203425 | 18 | 213 | 1.6 | 4.8 | 0.00 | 0.00 | 0.00 | 67 | 1007.5 |
| 20260505202921 | 18 | 243 | 3.2 | 3.2 | 0.00 | 0.00 | 0.00 | 67 | 1007.4 |
| 20260505202418 | 18 | 208 | 1.6 | 3.2 | 0.00 | 0.00 | 0.00 | 68 | 1007.4 |
| 20260505201914 | 18 | 274 | 1.6 | 4.8 | 0.00 | 0.00 | 0.00 | 67 | 1007.7 |
| 20260505201411 | 18 | 266 | 1.6 | 3.2 | 0.00 | 0.00 | 0.00 | 67 | 1008.1 |
| 20260505200910 | 18 | 215 | 4.8 | 4.8 | 0.00 | 0.00 | 0.00 | 67 | 1007.8 |
| 20260505200406 | 18 | 269 | 0.0 | 3.2 | 0.00 | 0.00 | 0.00 | 65 | 1007.9 |
| 20260505195902 | 18 | 264 | 1.6 | 4.8 | 0.00 | 0.00 | 0.00 | 66 | 1007.9 |
| 20260505195359 | 18 | 149 | 0.0 | 3.2 | 0.00 | 0.00 | 0.00 | 66 | 1008.1 |
| 20260505194856 | 18 | 231 | 0.0 | 0.0 | 0.00 | 0.00 | 0.00 | 67 | 1007.7 |
| 20260505194354 | 18 | 236 | 1.6 | 4.8 | 0.00 | 0.00 | 0.00 | 66 | 1008.0 |
| 20260505193854 | 18 | 155 | 1.6 | 3.2 | 0.00 | 0.00 | 0.00 | 67 | 1007.8 |
| 20260505193352 | 18 | 262 | 1.6 | 3.2 | 0.00 | 0.00 | 0.00 | 68 | 1008.1 |
| 20260505192849 | 18 | 241 | 1.6 | 3.2 | 0.00 | 0.00 | 0.00 | 69 | 1008.0 |
| 20260505192348 | 18 | 232 | 3.2 | 3.2 | 0.00 | 0.00 | 0.00 | 70 | 1008.4 |
| 20260505191845 | 17 | 248 | 4.8 | 6.4 | 0.00 | 0.00 | 0.00 | 68 | 1008.4 |
| 20260505191344 | 17 | 137 | 0.0 | 4.8 | 0.00 | 0.00 | 0.00 | 68 | 1008.6 |
| 20260505190840 | 17 | 224 | 6.4 | 8.0 | 0.00 | 0.00 | 0.00 | 69 | 1008.5 |
| 20260505190335 | 18 | 264 | 9.7 | 16.1 | 0.00 | 0.00 | 0.00 | 65 | 1008.7 |
| 20260505185831 | 18 | 245 | 4.8 | 9.7 | 0.00 | 0.00 | 0.00 | 63 | 1008.6 |
| 20260505185328 | 18 | 237 | 1.6 | 8.0 | 0.00 | 0.00 | 0.00 | 63 | 1008.6 |
| 20260505184824 | 19 | 227 | 3.2 | 4.8 | 0.00 | 0.00 | 0.00 | 62 | 1008.4 |
| 20260505184321 | 19 | 264 | 0.0 | 6.4 | 0.00 | 0.00 | 0.00 | 62 | 1008.4 |
| 20260505183818 | 20 | 218 | 4.8 | 6.4 | 0.00 | 0.00 | 0.00 | 61 | 1008.4 |
| 20260505183315 | 20 | 233 | 4.8 | 11.3 | 0.00 | 0.00 | 0.00 | 60 | 1008.3 |
| 20260505182812 | 20 | 260 | 3.2 | 9.7 | 0.00 | 0.00 | 0.00 | 60 | 1008.2 |
| 20260505182308 | 20 | 279 | 4.8 | 14.5 | 0.00 | 0.00 | 0.00 | 60 | 1008.3 |
| 20260505181805 | 20 | 210 | 3.2 | 8.0 | 0.00 | 0.00 | 0.00 | 61 | 1008.1 |
| 20260505181303 | 20 | 239 | 3.2 | 4.8 | 0.00 | 0.00 | 0.00 | 60 | 1008.3 |
| 20260505180759 | 20 | 204 | 3.2 | 3.2 | 0.00 | 0.00 | 0.00 | 61 | 1008.1 |
| 20260505180255 | 20 | 250 | 6.4 | 9.7 | 0.00 | 0.00 | 0.00 | 61 | 1008.2 |
| 20260505175752 | 20 | 263 | 3.2 | 9.7 | 0.00 | 0.00 | 0.00 | 61 | 1008.1 |
| 20260505175248 | 20 | 229 | 4.8 | 11.3 | 0.00 | 0.00 | 0.00 | 61 | 1008.2 |
| 20260505174745 | 20 | 232 | 4.8 | 4.8 | 0.00 | 0.00 | 0.00 | 62 | 1008.1 |
| 20260505174242 | 20 | 233 | 3.2 | 6.4 | 0.00 | 0.00 | 0.00 | 60 | 1008.0 |
| 20260505173738 | 20 | 191 | 1.6 | 17.7 | 0.00 | 0.00 | 0.00 | 62 | 1007.9 |
| 20260505173235 | 20 | 245 | 6.4 | 6.4 | 0.00 | 0.00 | 0.00 | 60 | 1007.8 |
| 20260505172732 | 20 | 280 | 6.4 | 6.4 | 0.00 | 0.00 | 0.00 | 59 | 1007.9 |
| 20260505172229 | 20 | 237 | 3.2 | 8.0 | 0.00 | 0.00 | 0.00 | 59 | 1007.9 |
| 20260505171729 | 20 | 258 | 1.6 | 6.4 | 0.00 | 0.00 | 0.00 | 60 | 1007.8 |
| 20260505171226 | 20 | 214 | 3.2 | 8.0 | 0.00 | 0.00 | 0.00 | 60 | 1007.9 |
| 20260505170723 | 20 | 229 | 6.4 | 8.0 | 0.00 | 0.00 | 0.00 | 60 | 1007.7 |
| 20260505170220 | 20 | 223 | 6.4 | 16.1 | 0.00 | 0.00 | 0.00 | 56 | 1007.8 |
| 20260505165715 | 20 | 173 | 6.4 | 17.7 | 0.00 | 0.00 | 0.00 | 58 | 1007.8 |
| 20260505165211 | 20 | 264 | 3.2 | 8.0 | 0.00 | 0.00 | 0.00 | 58 | 1007.8 |
| 20260505164707 | 20 | 274 | 4.8 | 16.1 | 0.00 | 0.00 | 0.00 | 56 | 1007.9 |
| 20260505164204 | 21 | 239 | 3.2 | 6.4 | 0.00 | 0.00 | 0.00 | 57 | 1007.7 |
| 20260505163702 | 21 | 281 | 6.4 | 8.0 | 0.00 | 0.00 | 0.00 | 56 | 1007.8 |
| 20260505163201 | 21 | 182 | 3.2 | 9.7 | 0.00 | 0.00 | 0.00 | 56 | 1007.7 |
| 20260505162658 | 21 | 256 | 6.4 | 17.7 | 0.00 | 0.00 | 0.00 | 56 | 1007.8 |
| 20260505162155 | 21 | 258 | 6.4 | 9.7 | 0.00 | 0.00 | 0.00 | 56 | 1007.2 |
| 20260505161651 | 21 | 246 | 8.0 | 12.9 | 0.00 | 0.00 | 0.00 | 55 | 1007.4 |
| 20260505161149 | 21 | 138 | 1.6 | 8.0 | 0.00 | 0.00 | 0.00 | 54 | 1007.5 |
| 20260505160647 | 21 | 281 | 6.4 | 9.7 | 0.00 | 0.00 | 0.00 | 57 | 1007.4 |
| 20260505160144 | 21 | 203 | 6.4 | 14.5 | 0.00 | 0.00 | 0.00 | 55 | 1007.2 |
| 20260505153123 | 20 | 254 | 6.4 | 6.4 | 0.00 | 0.00 | 0.00 | 62 | 1007.9 |
| 20260505152620 | 20 | 226 | 8.0 | 8.0 | 0.00 | 0.00 | 0.00 | 61 | 1007.8 |
| 20260505152115 | 20 | 228 | 1.6 | 17.7 | 0.00 | 0.00 | 0.00 | 60 | 1007.8 |
| 20260505151611 | 19 | 59 | 0.0 | 14.5 | 0.00 | 0.00 | 0.00 | 62 | 1007.8 |
| 20260505151109 | 19 | 307 | 11.3 | 14.5 | 0.00 | 0.00 | 0.00 | 60 | 1008.0 |
| 20260505150605 | 20 | 329 | 6.4 | 16.1 | 0.00 | 0.00 | 0.00 | 59 | 1007.9 |
| 20260505140530 | 18 | 177 | 9.7 | 12.9 | 0.00 | 0.00 | 0.00 | 67 | 1007.2 |